• In Österreich
  • Länderverzeichnis
  • Für 7 Tage
  • Wassertemperatur
  • Satellitenkarten
  • Wetterkarte
  • News
  • Widgets
  • user-avatar
    Anmelden

    Stündliche Wetter Proshkovo

    Heute, 23 Juli, Montag

    Zeit Temperatur Niederschläge Wind Luftdruck Luftfeuchtigkeit
    00:00 +20°C° 0 mm 1 m/S 746 mmHg 98%
    01:00 +20°C° 0 mm 1 m/S 746 mmHg 98%
    02:00 +19°C° 0 mm 1 m/S 746 mmHg 98%
    03:00 +19°C° 0 mm 1 m/S 746 mmHg 98%
    04:00 +19°C° 0 mm 1 m/S 746 mmHg 98%
    05:00 +19°C° 0 mm 1 m/S 746 mmHg 98%
    06:00 +20°C° 0 mm 2 m/S 746 mmHg 93%
    07:00 +21°C° 0 mm 2 m/S 746 mmHg 88%
    08:00 +23°C° 0 mm 2 m/S 746 mmHg 83%
    09:00 +24°C° 0,2 mm 2 m/S 746 mmHg 79%
    10:00 +25°C° 0,2 mm 3 m/S 746 mmHg 75%
    11:00 +26°C° 0,2 mm 3 m/S 746 mmHg 71%
    12:00 +26°C° 0,6 mm 3 m/S 746 mmHg 71%
    13:00 +26°C° 0,6 mm 3 m/S 746 mmHg 71%
    14:00 +26°C° 0,6 mm 3 m/S 746 mmHg 72%
    15:00 +26°C° 0,1 mm 3 m/S 746 mmHg 71%
    16:00 +26°C° 0,1 mm 3 m/S 746 mmHg 70%
    17:00 +26°C° 0,1 mm 2 m/S 746 mmHg 69%
    18:00 +25°C° 0 mm 2 m/S 746 mmHg 75%
    19:00 +23°C° 0 mm 2 m/S 747 mmHg 81%
    20:00 +21°C° 0 mm 2 m/S 747 mmHg 88%
    21:00 +20°C° 0 mm 2 m/S 747 mmHg 91%
    22:00 +19°C° 0 mm 2 m/S 747 mmHg 94%
    23:00 +19°C° 0 mm 1 m/S 748 mmHg 96%

    Morgen, 24 Juli, Dienstag

    Zeit Temperatur Niederschläge Wind Luftdruck Luftfeuchtigkeit
    00:00 +18°C° 0 mm 1 m/S 748 mmHg 97%
    01:00 +18°C° 0 mm 1 m/S 748 mmHg 97%
    02:00 +18°C° 0 mm 1 m/S 748 mmHg 98%
    03:00 +18°C° 0 mm 1 m/S 748 mmHg 97%
    04:00 +17°C° 0 mm 2 m/S 748 mmHg 97%
    05:00 +17°C° 0 mm 2 m/S 748 mmHg 96%
    06:00 +18°C° 0 mm 2 m/S 748 mmHg 89%
    07:00 +20°C° 0 mm 2 m/S 748 mmHg 83%
    08:00 +21°C° 0 mm 3 m/S 748 mmHg 76%
    09:00 +22°C° 0 mm 3 m/S 748 mmHg 73%
    10:00 +24°C° 0 mm 3 m/S 748 mmHg 70%
    11:00 +25°C° 0 mm 3 m/S 748 mmHg 66%
    12:00 +25°C° 0,1 mm 3 m/S 748 mmHg 67%
    13:00 +25°C° 0,1 mm 3 m/S 748 mmHg 67%
    14:00 +26°C° 0,1 mm 3 m/S 748 mmHg 68%
    15:00 +25°C° 0,3 mm 3 m/S 748 mmHg 71%
    16:00 +25°C° 0,3 mm 3 m/S 748 mmHg 74%
    17:00 +25°C° 0,3 mm 3 m/S 748 mmHg 77%
    18:00 +24°C° 0,2 mm 3 m/S 748 mmHg 82%
    19:00 +23°C° 0,2 mm 2 m/S 748 mmHg 87%
    20:00 +20°C° 0,2 mm 2 m/S 749 mmHg 92%
    21:00 +20°C° 0 mm 2 m/S 749 mmHg 94%
    22:00 +19°C° 0 mm 2 m/S 749 mmHg 96%
    23:00 +18°C° 0 mm 2 m/S 749 mmHg 98%

    übermorgen, 25 Juli, Mittwoch

    Zeit Temperatur Niederschläge Wind Luftdruck Luftfeuchtigkeit
    00:00 +18°C° 0 mm 2 m/S 749 mmHg 98%
    01:00 +18°C° 0 mm 2 m/S 749 mmHg 98%
    02:00 +17°C° 0 mm 2 m/S 749 mmHg 98%
    03:00 +17°C° 0 mm 2 m/S 749 mmHg 98%
    04:00 +18°C° 0 mm 2 m/S 749 mmHg 98%
    05:00 +18°C° 0 mm 2 m/S 749 mmHg 98%
    06:00 +19°C° 0 mm 2 m/S 749 mmHg 94%
    07:00 +20°C° 0 mm 2 m/S 749 mmHg 90%
    08:00 +23°C° 0 mm 2 m/S 749 mmHg 86%
    09:00 +24°C° 0,5 mm 2 m/S 749 mmHg 83%
    10:00 +25°C° 0,5 mm 2 m/S 750 mmHg 81%
    11:00 +26°C° 0,5 mm 2 m/S 750 mmHg 78%
    12:00 +26°C° 1,1 mm 3 m/S 750 mmHg 79%
    13:00 +26°C° 1,1 mm 3 m/S 750 mmHg 80%
    14:00 +26°C° 1,1 mm 4 m/S 750 mmHg 81%
    15:00 +25°C° 0,2 mm 4 m/S 750 mmHg 76%
    16:00 +25°C° 0,2 mm 4 m/S 750 mmHg 71%
    17:00 +23°C° 0,2 mm 4 m/S 750 mmHg 65%
    18:00 +22°C° 0 mm 3 m/S 750 mmHg 69%
    19:00 +20°C° 0 mm 3 m/S 750 mmHg 73%
    20:00 +19°C° 0 mm 2 m/S 750 mmHg 76%
    21:00 +18°C° 0,1 mm 2 m/S 750 mmHg 80%
    22:00 +18°C° 0,1 mm 2 m/S 750 mmHg 83%
    23:00 +18°C° 0,1 mm 2 m/S 751 mmHg 87%

    26 Juli, Donnerstag

    Zeit Temperatur Niederschläge Wind Luftdruck Luftfeuchtigkeit
    00:00 +18°C° 0 mm 2 m/S 750 mmHg 89%
    01:00 +18°C° 0 mm 3 m/S 750 mmHg 92%
    02:00 +18°C° 0 mm 3 m/S 750 mmHg 94%
    03:00 +18°C° 0 mm 3 m/S 750 mmHg 94%
    04:00 +18°C° 0 mm 3 m/S 750 mmHg 94%
    05:00 +18°C° 0 mm 3 m/S 750 mmHg 94%
    06:00 +18°C° 0,2 mm 3 m/S 750 mmHg 92%
    07:00 +19°C° 0,2 mm 3 m/S 750 mmHg 89%
    08:00 +20°C° 0,2 mm 3 m/S 750 mmHg 87%
    09:00 +20°C° 0,2 mm 3 m/S 750 mmHg 86%
    10:00 +21°C° 0,2 mm 3 m/S 750 mmHg 86%
    11:00 +22°C° 0,2 mm 3 m/S 750 mmHg 85%
    12:00 +22°C° 0,6 mm 3 m/S 750 mmHg 86%
    13:00 +22°C° 0,6 mm 3 m/S 750 mmHg 88%
    14:00 +24°C° 0,6 mm 3 m/S 750 mmHg 89%
    15:00 +24°C° 0,4 mm 3 m/S 750 mmHg 89%
    16:00 +24°C° 0,4 mm 3 m/S 750 mmHg 88%
    17:00 +24°C° 0,4 mm 2 m/S 750 mmHg 88%
    18:00 +23°C° 0,5 mm 2 m/S 750 mmHg 90%
    19:00 +23°C° 0,5 mm 2 m/S 750 mmHg 92%
    20:00 +21°C° 0,5 mm 2 m/S 750 mmHg 94%
    21:00 +21°C° 0,7 mm 2 m/S 751 mmHg 95%
    22:00 +20°C° 0,7 mm 2 m/S 751 mmHg 96%
    23:00 +20°C° 0,7 mm 2 m/S 751 mmHg 96%

    27 Juli, Freitag

    Zeit Temperatur Niederschläge Wind Luftdruck Luftfeuchtigkeit
    00:00 +20°C° 0,1 mm 2 m/S 751 mmHg 96%
    01:00 +20°C° 0,1 mm 2 m/S 751 mmHg 97%
    02:00 +20°C° 0,1 mm 2 m/S 751 mmHg 97%
    03:00 +20°C° 0 mm 2 m/S 751 mmHg 97%
    04:00 +20°C° 0 mm 2 m/S 751 mmHg 97%
    05:00 +20°C° 0 mm 2 m/S 752 mmHg 97%
    06:00 +21°C° 0 mm 2 m/S 752 mmHg 95%
    07:00 +23°C° 0 mm 2 m/S 752 mmHg 93%
    08:00 +24°C° 0 mm 2 m/S 752 mmHg 91%
    09:00 +26°C° 0,2 mm 3 m/S 752 mmHg 83%
    10:00 +27°C° 0,2 mm 3 m/S 752 mmHg 75%
    11:00 +29°C° 0,2 mm 3 m/S 752 mmHg 67%
    12:00 +30°C° 0,1 mm 3 m/S 752 mmHg 63%
    13:00 +31°C° 0,1 mm 3 m/S 752 mmHg 58%
    14:00 +33°C° 0,1 mm 3 m/S 752 mmHg 53%
    15:00 +31°C° 0,1 mm 3 m/S 752 mmHg 55%
    16:00 +31°C° 0,1 mm 3 m/S 752 mmHg 57%
    17:00 +31°C° 0,1 mm 3 m/S 752 mmHg 59%
    18:00 +28°C° 0,6 mm 3 m/S 752 mmHg 68%
    19:00 +26°C° 0,6 mm 3 m/S 752 mmHg 78%
    20:00 +24°C° 0,6 mm 2 m/S 753 mmHg 87%
    21:00 +23°C° 0,2 mm 2 m/S 753 mmHg 88%
    22:00 +23°C° 0,2 mm 2 m/S 753 mmHg 90%
    23:00 +23°C° 0,2 mm 2 m/S 753 mmHg 91%

    28 Juli, Samstag

    Zeit Temperatur Niederschläge Wind Luftdruck Luftfeuchtigkeit
    00:00 +23°C° 0,4 mm 2 m/S 753 mmHg 92%
    01:00 +21°C° 0,4 mm 2 m/S 754 mmHg 93%
    02:00 +21°C° 0,4 mm 2 m/S 754 mmHg 94%
    03:00 +21°C° 1,2 mm 2 m/S 754 mmHg 95%
    04:00 +21°C° 1,2 mm 2 m/S 754 mmHg 95%
    05:00 +21°C° 1,2 mm 2 m/S 754 mmHg 96%
    06:00 +23°C° 0 mm 2 m/S 754 mmHg 92%
    07:00 +24°C° 0 mm 2 m/S 755 mmHg 87%
    08:00 +25°C° 0 mm 2 m/S 755 mmHg 83%
    09:00 +27°C° 0 mm 3 m/S 755 mmHg 72%
    10:00 +29°C° 0 mm 3 m/S 755 mmHg 61%
    11:00 +31°C° 0 mm 3 m/S 755 mmHg 50%
    12:00 +31°C° 0 mm 3 m/S 755 mmHg 48%
    13:00 +31°C° 0 mm 3 m/S 755 mmHg 46%
    14:00 +33°C° 0 mm 3 m/S 755 mmHg 44%
    15:00 +31°C° 0 mm 3 m/S 755 mmHg 48%
    16:00 +31°C° 0 mm 2 m/S 755 mmHg 52%
    17:00 +30°C° 0 mm 2 m/S 755 mmHg 56%
    18:00 +28°C° 0 mm 2 m/S 755 mmHg 63%
    19:00 +26°C° 0 mm 2 m/S 755 mmHg 70%
    20:00 +24°C° 0 mm 2 m/S 755 mmHg 77%
    21:00 +24°C° 0 mm 2 m/S 755 mmHg 79%
    22:00 +23°C° 0 mm 2 m/S 755 mmHg 81%
    23:00 +21°C° 0 mm 2 m/S 756 mmHg 83%
    Mehr zeigen